Weather History for KFLO - March, 2013

Change the Weather History Date:

Monday, March 11, 2013

  Actual Average Record
Temperature  
Mean Temperature 55 °F 54 °F  
Max Temperature 71 °F 66 °F 86 °F (1986)
Min Temperature 39 °F 42 °F 26 °F (1960)
Degree Days  
Heating Degree Days 10 11  
Month to date heating degree days 195 136  
Since 1 July heating degree days 1942 2202  
Cooling Degree Days 0 0  
Month to date cooling degree days 0 0  
Year to date cooling degree days 21 6  
Growing Degree Days 6 (Base 50)    
Moisture  
Dew Point 45 °F    
Average Humidity 69    
Maximum Humidity 93    
Minimum Humidity 45    
Precipitation  
Precipitation 0.00 in 0.11 in 2.36 in (1962)
Month to date precipitation 0.01 1.23  
Year to date precipitation 6.53 7.38  
Sea Level Pressure  
Sea Level Pressure 30.07 in    
Wind  
Wind Speed 8 mph (SSE)    
Max Wind Speed 21 mph    
Max Gust Speed 26 mph    
Visibility 10 miles    
Events      
T = Trace of Precipitation, MM = Missing Value Source: NWS Daily Summary

Daily Weather History Graph

Daily Weather History Graph

Search for Another Location

Airport or City:

Trip Planner

Search our weather history database for the weather conditions in past years. The results will help you decide how hot, cold, wet, or windy it might be!

Date:

Astronomy

Mar. 11, 2013 Rise Set
Actual Time 7:34 AM EDT 7:23 PM EDT
Civil Twilight 7:09 AM EDT 7:48 PM EDT
Nautical Twilight 6:40 AM EDT 8:17 PM EDT
Astronomical Twilight 6:11 AM EDT 8:46 PM EDT
Moon 7:08 AM EDT (3/11) 7:31 PM EDT (3/11)
Length of Visible Light 12h 39m
Length of Day
11h 49m
Waning Crescent, 0% of the Moon is Illuminated
Mar 11
Waning Crescent
Mar 11
New
Mar 19
First Quarter
Mar 27
Full
Apr 3
Last Quarter

Hourly Weather History & Observations

Time (EDT) Temp. Windchill Dew Point Humidity Pressure Visibility Wind Dir Wind Speed Gust Speed Precip Events Conditions
12:53 AM 43.0 °F - 23.0 °F 45% 30.23 in 10.0 mi Calm Calm - N/A   Clear
1:53 AM 42.1 °F - 25.0 °F 51% 30.21 in 10.0 mi Calm Calm - N/A   Clear
2:53 AM 42.1 °F 38.4 °F 30.0 °F 62% 30.18 in 10.0 mi ESE 5.8 mph - N/A   Clear
3:53 AM 43.0 °F - 32.0 °F 65% 30.18 in 10.0 mi Calm Calm - N/A   Partly Cloudy
4:53 AM 43.0 °F 41.3 °F 37.0 °F 80% 30.15 in 10.0 mi ESE 3.5 mph - N/A   Clear
5:53 AM 43.0 °F 40.3 °F 37.9 °F 82% 30.14 in 10.0 mi ESE 4.6 mph - N/A   Clear
6:53 AM 45.0 °F - 41.0 °F 86% 30.14 in 10.0 mi Calm Calm - N/A   Clear
7:53 AM 46.9 °F - 44.1 °F 90% 30.14 in 8.0 mi ESE 3.5 mph - N/A   Overcast
8:53 AM 50.0 °F - 46.0 °F 86% 30.13 in 10.0 mi SE 4.6 mph - N/A   Mostly Cloudy
9:53 AM 57.0 °F - 48.9 °F 74% 30.13 in 10.0 mi SE 6.9 mph - N/A   Mostly Cloudy
10:53 AM 63.0 °F - 50.0 °F 63% 30.12 in 10.0 mi SE 5.8 mph - N/A   Overcast
11:53 AM 68.0 °F - 51.1 °F 55% 30.11 in 10.0 mi South 10.4 mph - N/A   Overcast
12:53 PM 68.0 °F - 52.0 °F 56% 30.09 in 10.0 mi SE 15.0 mph 19.6 mph N/A   Overcast
1:53 PM 69.1 °F - 52.0 °F 54% 30.06 in 10.0 mi South 11.5 mph - N/A   Overcast
2:53 PM 71.1 °F - 51.1 °F 49% 30.02 in 10.0 mi SSW 11.5 mph - N/A   Overcast
3:53 PM 69.1 °F - 52.0 °F 54% 30.00 in 10.0 mi SSE 12.7 mph 20.7 mph N/A   Overcast
4:53 PM 71.1 °F - 50.0 °F 47% 29.98 in 10.0 mi South 15.0 mph 19.6 mph N/A   Overcast
5:53 PM 69.1 °F - 50.0 °F 51% 29.96 in 10.0 mi SSE 16.1 mph 21.9 mph N/A   Overcast
6:53 PM 66.0 °F - 52.0 °F 60% 29.95 in 10.0 mi SSE 16.1 mph - N/A   Scattered Clouds
7:53 PM 64.0 °F - 53.1 °F 67% 29.96 in 10.0 mi SSE 9.2 mph - N/A   Partly Cloudy
8:53 PM 64.0 °F - 52.0 °F 65% 29.95 in 10.0 mi SSE 9.2 mph - N/A   Clear
9:53 PM 63.0 °F - 53.1 °F 70% 29.94 in 10.0 mi SSE 11.5 mph - N/A   Scattered Clouds
10:53 PM 63.0 °F - 53.1 °F 70% 29.94 in 10.0 mi South 6.9 mph - N/A   Clear
11:53 PM 62.1 °F - 54.0 °F 75% 29.93 in 10.0 mi SSE 5.8 mph - N/A   Mostly Cloudy